This is the latest recevied weather packets stored in our database for station/object KC3SOZ. If no packets are shown the sender has not sent any weather packets the latest 10 day(s).
| Time | Temp. | Humidity | Pressure | Rain* | Wind** | Luminosity | Snow |
|---|---|---|---|---|---|---|---|
| 1778247210 | 8.33° C | 92% | 1015.3 hPa | 0 mm | - | 259 W/m² | - |
| 1778246906 | 8.33° C | 96% | 1015.1 hPa | 0 mm | - | 191 W/m² | - |
| 1778246604 | 8.33° C | 97% | 1015.2 hPa | 0 mm | - | 177 W/m² | - |
| 1778246301 | 7.78° C | 97% | 1015.1 hPa | 0 mm | - | 183 W/m² | - |
| 1778245996 | 7.22° C | 97% | 1015 hPa | 0 mm | - | 104 W/m² | - |
| 1778245693 | 7.22° C | 97% | 1015.1 hPa | 0 mm | - | 120 W/m² | - |
| 1778245390 | 7.22° C | 98% | 1015.2 hPa | 0 mm | - | 97 W/m² | - |
| 1778245086 | 7.22° C | 99% | 1015.3 hPa | 0 mm | - | 86 W/m² | - |
| 1778244782 | 7.22° C | 99% | 1015.1 hPa | 0 mm | - | 140 W/m² | - |
| 1778244481 | 7.22° C | 99% | 1015.1 hPa | 0 mm | - | 154 W/m² | - |
| 1778244177 | 6.67° C | 99% | 1015 hPa | 0 mm | - | 210 W/m² | - |
| 1778243875 | 6.67° C | 99% | 1015.3 hPa | 0 mm | - | 115 W/m² | - |
| 1778243573 | 6.11° C | 99% | 1015.2 hPa | 0 mm | - | 217 W/m² | - |
| 1778243269 | 6.11° C | 99% | 1015.2 hPa | 0 mm | - | 133 W/m² | - |
| 1778242966 | 5.56° C | 99% | 1015.2 hPa | 0 mm | - | 80 W/m² | - |
| 1778242664 | 5.56° C | 99% | 1015.2 hPa | 0 mm | - | 70 W/m² | - |
| 1778242362 | 5.56° C | 99% | 1015 hPa | 0 mm | - | 59 W/m² | - |
| 1778242059 | 5.56° C | 99% | 1014.9 hPa | 0 mm | - | 59 W/m² | - |
| 1778241757 | 5.56° C | 99% | 1014.8 hPa | 0 mm | - | 61 W/m² | - |
| 1778241454 | 5° C | 99% | 1014.9 hPa | 0 mm | - | 69 W/m² | - |
| 1778241152 | 5° C | 99% | 1015 hPa | 0 mm | - | 47 W/m² | - |
| 1778240848 | 5° C | 99% | 1015 hPa | 0 mm | - | 88 W/m² | - |
| 1778240545 | 5° C | 99% | 1014.9 hPa | 0 mm | - | 95 W/m² | - |
| 1778240241 | 4.44° C | 99% | 1014.8 hPa | 0 mm | - | 100 W/m² | - |
| 1778239940 | 4.44° C | 99% | 1014.9 hPa | 0 mm | - | 110 W/m² | - |
* Rain latest hour (hover to see other rain measurements)
** Current wind speed in m/s (hover to see current wind gust speed)